Thermal, CA

3:47 PM PDT on May 25, 2017 (GMT -0700)
Desert Resorts Regional

Weather History for KTRM - February, 2014

Change the Weather History Date:

Friday, February 14, 2014

  Actual Average Record
Temperature  
Mean Temperature 67 °F 58 °F  
Max Temperature 88 °F 75 °F 94 °F (2016)
Min Temperature 45 °F 41 °F 26 °F (1966)
Degree Days  
Heating Degree Days 0 8  
Month to date heating degree days 92 119  
Since 1 July heating degree days 765 979  
Cooling Degree Days 2 0  
Month to date cooling degree days 3 0  
Year to date cooling degree days 3 2  
Growing Degree Days 16 (Base 50)    
Moisture  
Dew Point 33 °F    
Average Humidity 38    
Maximum Humidity 65    
Minimum Humidity 11    
Precipitation  
Precipitation 0.00 in 0.03 in 1.04 in (1980)
Month to date precipitation 0.00 0.30  
Year to date precipitation T 0.97  
Since 1 July precipitation 1.47  
Snow  
Snow 0.00 in - - ()
Month to date snowfall 0.0  
Year to date snowfall 0.0  
Snow Depth 0.00 in    
Sea Level Pressure  
Sea Level Pressure 29.95 in    
Wind  
Wind Speed 5 mph (NNW)    
Max Wind Speed 9 mph    
Max Gust Speed 12 mph    
Visibility 10 miles    
Events      
T = Trace of Precipitation, MM = Missing Value Source: NWS Daily Summary

Daily Weather History Graph

Daily Weather History Graph

Search for Another Location

Airport or City:

Trip Planner

Search our weather history database for the weather conditions in past years. The results will help you decide how hot, cold, wet, or windy it might be!

Date:

Astronomy

Feb. 14, 2014 Rise Set
Actual Time 6:29 AM PST 5:28 PM PST
Civil Twilight 6:04 AM PST 5:53 PM PST
Nautical Twilight 5:35 AM PST 6:23 PM PST
Astronomical Twilight 5:06 AM PST 6:52 PM PST
Moon 5:33 PM PST (2/14) 6:00 AM PST (2/14)
Length of Visible Light 11h 49m
Length of Day
10h 58m
Full, 100% of the Moon is Illuminated
Feb 14
Full
Feb 14
Full
Feb 22
Last Quarter
Mar 1
New
Mar 8
First Quarter

Hourly Weather History & Observations

Time (PST) Temp. Windchill Dew Point Humidity Pressure Visibility Wind Dir Wind Speed Gust Speed Precip Events Conditions
12:52 AM 51.1 °F - 34.0 °F 52% 29.95 in 10.0 mi West 5.8 mph - N/A   Clear
1:52 AM 53.1 °F - 35.1 °F 50% 29.94 in 10.0 mi NNE 5.8 mph - N/A   Clear
2:52 AM 48.9 °F - 34.0 °F 56% 29.93 in 10.0 mi NNW 4.6 mph - N/A   Clear
3:52 AM 45.0 °F 41.8 °F 33.1 °F 63% 29.94 in 10.0 mi WNW 5.8 mph - N/A   Clear
4:52 AM 48.9 °F - 32.0 °F 52% 29.95 in 10.0 mi North 4.6 mph - N/A   Clear
5:52 AM 48.0 °F - 33.1 °F 56% 29.96 in 10.0 mi NNW 5.8 mph - N/A   Clear
6:52 AM 48.9 °F - 30.9 °F 50% 29.97 in 10.0 mi NNW 3.5 mph - N/A   Clear
7:52 AM 59.0 °F - 34.0 °F 39% 29.99 in 10.0 mi North 3.5 mph - N/A   Clear
8:52 AM 69.1 °F - 32.0 °F 25% 30.00 in 10.0 mi North 5.8 mph - N/A   Clear
9:52 AM 77.0 °F - 32.0 °F 19% 30.01 in 10.0 mi NW 4.6 mph - N/A   Clear
10:52 AM 82.0 °F - 28.0 °F 14% 30.00 in 10.0 mi Calm Calm - N/A   Clear
11:52 AM 86.0 °F - 30.0 °F 13% 29.97 in 10.0 mi South 6.9 mph - N/A   Clear
12:52 PM 84.9 °F - 36.0 °F 17% 29.95 in 10.0 mi SSE 8.1 mph - N/A   Clear
1:52 PM 87.1 °F - 32.0 °F 14% 29.93 in 10.0 mi Variable 6.9 mph - N/A   Clear
2:52 PM 88.0 °F - 27.0 °F 11% 29.91 in 10.0 mi SSE 4.6 mph - N/A   Clear
3:52 PM 87.1 °F - 21.9 °F 9% 29.91 in 10.0 mi SE 8.1 mph - N/A   Clear
4:52 PM 82.0 °F - 30.9 °F 16% 29.90 in 10.0 mi SSE 5.8 mph - N/A   Clear
5:52 PM 71.1 °F - 33.1 °F 25% 29.91 in 10.0 mi SSE 5.8 mph - N/A   Clear
6:52 PM 62.1 °F - 33.1 °F 34% 29.92 in 10.0 mi Calm Calm - N/A   Clear
7:52 PM 61.0 °F - 36.0 °F 39% 29.93 in 10.0 mi NNW 3.5 mph - N/A   Clear
8:52 PM 57.0 °F - 36.0 °F 45% 29.94 in 10.0 mi NNW 4.6 mph - N/A   Clear
9:52 PM 55.9 °F - 36.0 °F 47% 29.96 in 10.0 mi NNW 4.6 mph - N/A   Clear
10:52 PM 54.0 °F - 34.0 °F 47% 29.94 in 10.0 mi Calm Calm - N/A   Clear
11:52 PM 51.1 °F - 36.0 °F 56% 29.94 in 10.0 mi North 3.5 mph - N/A   Clear